Lid_Strength_Index
0 1 1 4 11 12 15 12 9 9 9 7 6 7 9 8 10 12 3 1 0 0 -1 -1 -1 -2 -2 -2 -2 -2 -2 -2 -2 -2 -2 -2 -2 -2 -2 -2 -2 -2 -2 -2 -2 -2 -2 -2 -2
1 1 3 6 13 17 14 9 10 9 7 6 6 7 8 9 5 5 4 1 -0 0 -1 -1 -1 -2 -2 -2 -2 -2 -2 -2 -2 -2 -2 -2 -2 -2 -2 -2 -2 -2 -2 -2 -2 -2 -2 -2 -2
1 1 7 10 13 16 14 9 8 8 6 7 8 6 7 8 4 4 2 0 -0 0 -1 -1 -1 -2 -2 -2 -2 -2 -2 -2 -2 -2 -2 -2 -2 -2 -2 -2 -2 -2 -2 -2 -2 -2 -2 -2 -2
3 4 6 12 14 11 11 8 7 7 7 5 6 9 6 3 4 3 1 0 0 0 -0 -1 -1 -2 -2 -2 -2 -2 -2 -2 -2 -2 -2 -2 -2 -2 -2 -2 -2 -2 -2 -2 -2 -2 -2 -2 -2
3 6 12 13 12 10 8 7 7 8 8 7 7 9 8 4 3 2 1 0 1 0 -0 -1 -1 -1 -2 -2 -2 -2 -2 -2 -2 -2 -2 -2 -2 -2 -2 -2 -2 -2 -2 -2 -2 -2 -2 -2 -2
7 7 14 15 13 9 8 6 7 7 7 7 8 8 7 4 4 2 1 0 -0 0 -0 -1 0 -1 -1 -2 -2 -2 -2 -2 -2 -2 -2 -2 -2 -2 -2 -2 -2 -2 -2 -2 -2 -2 -1 -2 -2
9 11 13 12 12 10 8 6 7 7 7 7 6 9 6 4 4 3 1 0 0 -0 -0 -0 -0 -0 0 -1 -1 -1 -2 -2 -2 -2 -2 -2 -2 -2 -2 -2 -2 -2 -2 -2 -1 -1 -1 -2 -2
9 11 12 11 12 11 8 7 6 6 7 5 5 9 8 4 2 4 1 1 0 0 0 0 0 -0 0 0 1 0 -1 -1 -2 -2 -2 -1 -2 -2 -2 -1 -2 -1 -1 -1 -1 -1 -2 -2 -2
7 13 13 11 11 10 7 8 6 6 6 5 5 6 4 2 2 4 2 2 1 1 0 -0 -0 0 0 0 1 1 0 -0 -1 -1 -0 1 0 -0 -0 -1 -2 -2 -2 -2 -2 -2 -2 -1 -1
9 14 12 8 8 9 8 8 7 8 7 7 7 4 3 3 3 4 4 3 3 2 1 -0 0 0 -0 -1 0 0 -0 0 -0 -0 0 0 -0 -0 0 1 1 -1 -1 -2 -2 -2 -1 -1 -1
8 13 9 8 7 8 8 7 7 8 9 7 8 6 4 4 4 3 3 3 3 1 1 1 1 -0 -0 -0 0 0 0 1 0 0 1 0 1 1 0 1 1 1 1 -1 -1 -0 0 0 0
11 8 7 8 7 8 8 6 7 7 7 5 5 4 4 5 4 4 4 3 2 2 1 2 0 0 1 0 0 0 1 1 1 1 0 1 1 1 0 1 1 1 2 2 1 1 1 1 1
10 9 7 6 6 8 7 7 8 7 6 4 4 4 5 4 4 3 3 3 2 3 3 2 1 0 1 1 1 1 1 1 1 1 0 1 1 1 1 1 1 1 2 2 2 2 2 2 2
8 8 8 7 7 7 7 8 8 7 6 6 5 5 5 4 4 3 3 4 3 2 3 2 2 2 2 1 2 1 1 1 1 1 0 0 -0 0 0 1 1 2 2 2 1 2 2 2 3
8 10 9 8 7 8 7 9 9 6 6 7 6 6 5 4 4 4 3 3 2 2 2 2 1 2 1 1 2 1 1 1 1 1 0 0 -0 -0 -0 2 2 3 3 2 1 2 2 3 3
10 10 14 9 8 7 9 12 8 6 7 7 7 6 5 5 4 3 3 2 2 2 2 1 1 1 1 2 2 1 1 1 1 1 1 1 1 -0 1 2 4 4 4 3 2 2 2 3 4
12 16 14 12 8 8 10 12 8 7 7 8 7 7 6 5 4 3 2 3 2 2 2 1 1 2 1 2 2 1 1 1 1 2 2 2 2 2 3 4 4 4 4 3 3 2 2 4 5
16 15 13 14 10 9 11 11 8 8 6 7 7 7 6 6 5 3 3 3 2 2 2 1 1 1 2 2 2 2 2 2 1 2 2 3 3 4 5 5 4 4 5 4 4 4 3 4 6
12 13 14 12 9 10 11 11 9 7 7 7 7 7 7 6 4 3 3 3 2 2 2 2 2 1 2 2 2 2 3 4 4 5 4 4 4 4 5 5 6 6 6 5 4 5 5 7 8
12 13 14 11 9 10 11 11 9 8 7 7 7 7 7 6 5 4 3 3 2 2 2 2 1 1 1 1 2 3 4 4 5 6 6 6 5 5 5 6 7 8 8 6 5 5 6 6 7
12 14 13 13 12 10 12 13 11 9 8 7 6 6 6 6 6 5 4 3 3 3 2 2 1 1 1 1 2 4 6 6 7 8 8 7 6 7 6 7 8 9 8 7 6 6 6 8 8
15 10 11 13 14 18 12 19 12 10 10 8 7 7 6 6 5 4 4 4 3 2 2 2 1 1 1 2 2 3 4 6 7 8 8 8 7 8 7 8 9 10 10 10 9 8 7 8 9
13 10 11 12 14 15 15 17 14 10 11 9 8 8 6 5 5 5 4 3 3 2 2 2 2 1 1 2 2 3 4 6 8 8 8 9 9 8 9 9 10 10 10 11 11 11 11 10 10
10 12 12 13 14 19 16 17 16 13 11 9 8 7 7 6 5 4 3 3 3 3 3 2 2 2 1 2 2 3 5 7 8 9 9 10 10 10 10 10 10 10 11 12 12 12 12 12 12
11 14 19 20 20 21 14 17 14 11 9 9 9 7 7 6 6 5 4 4 3 4 3 3 2 2 2 2 3 4 4 6 7 8 9 10 11 12 12 11 11 12 12 12 12 13 13 14 14
13 14 19 23 22 20 15 19 15 9 9 9 8 7 6 7 6 5 5 4 4 3 3 2 3 3 2 2 3 4 4 5 7 8 8 9 10 11 11 12 11 12 12 13 13 14 14 14 15
14 16 12 17 19 19 17 14 11 11 10 11 10 10 8 6 7 6 5 4 4 3 3 3 3 2 2 2 3 4 5 6 6 7 8 8 10 11 12 11 12 13 13 13 13 14 14 15 15
12 12 17 16 22 23 19 18 16 14 12 12 12 12 9 7 6 7 5 4 3 3 3 2 2 3 3 2 3 4 5 6 6 6 8 10 11 12 12 13 13 14 14 14 14 14 14 15 15
14 15 14 14 16 21 21 18 17 17 15 11 12 12 12 11 9 8 8 7 6 5 5 5 5 5 5 5 6 7 7 7 6 7 8 10 12 12 13 12 13 14 14 14 14 14 15 15 15
13 14 13 18 19 17 18 18 16 16 15 15 14 13 13 12 12 11 11 10 9 8 8 7 7 7 6 7 7 7 7 7 7 8 8 11 12 13 12 12 13 14 14 14 14 15 15 15 15